{"data":{"norad_id":61552,"intl_designator":"2024-185A","name":"QIANFAN-19","alt_names":[],"object_type":"PAYLOAD","status":"ACTIVE","operator":null,"country":"PRC","launch_date":"2024-10-15","launch_site_code":"TAISC","launch_vehicle":null,"mission":null,"orbit_class":"UNKNOWN","rcs_meters":null,"size_class":null,"mass_kg":null,"dimensions":null,"purposes":[],"wikipedia_slug":null,"has_3d_model":false,"image_url":null,"decayed_at":null,"tle_current":{"epoch":"2026-05-25T01:56:27.343392Z","epoch_age_seconds":78592,"freshness":"FRESH","line1":"1 61552U 24185A   26145.08087203  .00000314  00000+0  15642-3 0  9993","line2":"2 61552  88.9851  59.2111 0008394 126.0975 234.0990 14.14457245 92750","mean_motion":14.14457245,"eccentricity":0.0008394,"inclination_deg":88.9851,"raan_deg":59.2111,"arg_perigee_deg":126.0975,"mean_anomaly_deg":234.099,"bstar":0.00015642,"rev_number":9275,"period_min":101.8058343644,"perigee_km":838.09673738748,"apogee_km":850.22152813516,"semimajor_km":7222.2961327613,"source":"CELESTRAK","updated_at":"2026-05-25T13:38:02.412110Z"}}}